Overview Statistics Trail Chart Weather Telemetry Raw packets
 

This is the latest recevied weather packets stored in our database for station/object N8TWM-13. If no packets are shown the sender has not sent any weather packets the latest 10 day(s).

<< 24 25 26 27 28 29 30 >>
Time Temp. Humidity Pressure Rain* Wind** Luminosity Snow
1788443742 29.44° C 72% 1017.1 hPa 0 mm - 398 W/m² -
1788443437 28.89° C 73% 1017.2 hPa 0 mm - 386 W/m² -
1788443136 28.89° C 73% 1017.3 hPa 0 mm - 370 W/m² -
1788442833 28.89° C 75% 1017.3 hPa 0 mm - 143 W/m² -
1788442530 28.89° C 74% 1017 hPa 0 mm - 337 W/m² -
1788442225 28.89° C 76% 1017.2 hPa 0 mm - 306 W/m² -
1788441920 28.33° C 76% 1017.1 hPa 0 mm - 281 W/m² -
1788441615 28.33° C 76% 1017.4 hPa 0 mm - 278 W/m² -
1788441310 27.78° C 76% 1017.4 hPa 0 mm - 271 W/m² -
1788441009 27.78° C 77% 1017.3 hPa 0 mm - 255 W/m² -
1788440704 27.78° C 77% 1017.6 hPa 0 mm - 121 W/m² -
1788440403 27.78° C 77% 1017.4 hPa 0 mm - 228 W/m² -
1788440102 27.78° C 78% 1017.6 hPa 0 mm - 206 W/m² -
1788439797 27.22° C 78% 1017.5 hPa 0 mm - 189 W/m² -
1788439492 27.22° C 78% 1017.3 hPa 0 mm - 157 W/m² -
1788439191 27.22° C 78% 1017.6 hPa 0 mm - 154 W/m² -
1788438886 27.22° C 79% 1017.4 hPa 0 mm - 149 W/m² -
1788438585 27.22° C 79% 1017.4 hPa 0 mm - 136 W/m² -
1788438284 26.67° C 79% 1017.5 hPa 0 mm - 75 W/m² -
1788437983 26.67° C 80% 1017.6 hPa 0 mm - 111 W/m² -
1788437678 26.67° C 80% 1017.4 hPa 0 mm - 102 W/m² -
1788437375 26.67° C 80% 1017.7 hPa 0 mm - 69 W/m² -
1788437073 26.67° C 80% 1017.4 hPa 0 mm - 58 W/m² -
1788436772 26.67° C 80% 1017.7 hPa 0 mm - 53 W/m² -
1788436490 26.11° C 80% 1017.8 hPa 0 mm - 48 W/m² -

* Rain latest hour (hover to see other rain measurements)
** Current wind speed in m/s (hover to see current wind gust speed)